| time (UTC) | temp C | wind direction | speed KPH | gust KPH | rain 1hr cm | rain 24hr cm | rain mn cm | humidity % | barometer mb |
| 20260503051517 | 10 | 208 | 0.0 | 9.7 | 0.00 | 0.00 | 0.00 | 53 | 1004.0 |
| 20260503051012 | 10 | 208 | 1.6 | 9.7 | 0.00 | 0.00 | 0.00 | 52 | 1004.2 |
| 20260503050516 | 10 | 210 | 0.0 | 9.7 | 0.00 | 0.00 | 0.00 | 53 | 1004.2 |
| 20260503045513 | 10 | 210 | 0.0 | 8.0 | 0.00 | 0.00 | 0.00 | 51 | 1004.3 |
| 20260503044516 | 10 | 209 | 3.2 | 8.0 | 0.00 | 0.00 | 0.00 | 50 | 1004.3 |
| 20260503044012 | 10 | 209 | 0.0 | 8.0 | 0.00 | 0.00 | 0.00 | 50 | 1004.4 |
| 20260503042512 | 10 | 209 | 1.6 | 8.0 | 0.00 | 0.00 | 0.00 | 51 | 1004.8 |
| 20260503041517 | 10 | 208 | 0.0 | 8.0 | 0.00 | 0.00 | 0.00 | 50 | 1004.8 |
| 20260503041011 | 10 | 212 | 0.0 | 8.0 | 0.00 | 0.00 | 0.00 | 50 | 1004.9 |
| 20260503040516 | 10 | 216 | 0.0 | 8.0 | 0.00 | 0.00 | 0.00 | 50 | 1004.9 |
| 20260503035512 | 10 | 217 | 0.0 | 0.0 | 0.00 | 0.00 | 0.00 | 51 | 1005.1 |
| 20260503034516 | 10 | 224 | 1.6 | 0.0 | 0.00 | 0.00 | 0.00 | 51 | 1005.1 |
| 20260503034012 | 9 | 251 | 0.0 | 0.0 | 0.00 | 0.00 | 0.00 | 53 | 1005.6 |
| 20260503033517 | 8 | 253 | 0.0 | 0.0 | 0.00 | 0.00 | 0.00 | 54 | 1005.6 |
| 20260503032511 | 8 | 254 | 0.0 | 0.0 | 0.00 | 0.00 | 0.00 | 58 | 1005.8 |
| 20260503031516 | 8 | 254 | 0.0 | 0.0 | 0.00 | 0.00 | 0.00 | 58 | 1005.8 |
| 20260503031011 | 8 | 254 | 0.0 | 0.0 | 0.00 | 0.00 | 0.00 | 56 | 1006.0 |
| 20260503030518 | 8 | 254 | 0.0 | 0.0 | 0.00 | 0.00 | 0.00 | 57 | 1006.0 |
| 20260503025512 | 8 | 254 | 0.0 | 0.0 | 0.00 | 0.00 | 0.00 | 57 | 1006.2 |
| 20260503024516 | 9 | 254 | 0.0 | 0.0 | 0.00 | 0.00 | 0.00 | 56 | 1006.2 |
| 20260503024011 | 9 | 254 | 0.0 | 0.0 | 0.00 | 0.00 | 0.00 | 55 | 1006.2 |
| 20260503023517 | 9 | 254 | 0.0 | 0.0 | 0.00 | 0.00 | 0.00 | 54 | 1006.2 |
| 20260503022513 | 10 | 254 | 0.0 | 0.0 | 0.00 | 0.00 | 0.00 | 50 | 1006.3 |
| 20260503021517 | 10 | 254 | 0.0 | 0.0 | 0.00 | 0.00 | 0.00 | 49 | 1006.3 |
| 20260503021012 | 11 | 254 | 0.0 | 0.0 | 0.00 | 0.00 | 0.00 | 47 | 1006.6 |
| 20260503020518 | 11 | 254 | 0.0 | 0.0 | 0.00 | 0.00 | 0.00 | 47 | 1006.6 |
| 20260503015512 | 11 | 254 | 0.0 | 16.1 | 0.00 | 0.00 | 0.00 | 47 | 1006.5 |
| 20260503014517 | 12 | 254 | 0.0 | 16.1 | 0.00 | 0.00 | 0.00 | 45 | 1006.5 |
| 20260503014012 | 12 | 254 | 0.0 | 16.1 | 0.00 | 0.00 | 0.00 | 45 | 1006.5 |
| 20260503013517 | 12 | 254 | 0.0 | 16.1 | 0.00 | 0.00 | 0.00 | 45 | 1006.5 |
| 20260503012511 | 12 | 254 | 0.0 | 16.1 | 0.00 | 0.00 | 0.00 | 42 | 1006.6 |
| 20260503011516 | 12 | 254 | 0.0 | 16.1 | 0.00 | 0.00 | 0.00 | 40 | 1006.6 |
| 20260503011011 | 12 | 254 | 0.0 | 16.1 | 0.00 | 0.00 | 0.00 | 36 | 1006.9 |
| 20260503010516 | 12 | 254 | 0.0 | 16.1 | 0.00 | 0.00 | 0.00 | 36 | 1006.9 |
| 20260503005512 | 12 | 254 | 0.0 | 17.7 | 0.00 | 0.00 | 0.00 | 36 | 1006.9 |
| 20260503004518 | 13 | 246 | 3.2 | 17.7 | 0.00 | 0.00 | 0.00 | 35 | 1006.9 |
| 20260503004012 | 13 | 247 | 3.2 | 17.7 | 0.00 | 0.00 | 0.00 | 35 | 1007.0 |
| 20260503003517 | 13 | 250 | 8.0 | 17.7 | 0.00 | 0.00 | 0.00 | 34 | 1007.0 |
| 20260503002511 | 13 | 236 | 0.0 | 17.7 | 0.00 | 0.00 | 0.00 | 35 | 1007.1 |
| 20260503001517 | 13 | 256 | 0.0 | 17.7 | 0.00 | 0.00 | 0.00 | 34 | 1007.1 |
| 20260503001012 | 13 | 219 | 0.0 | 17.7 | 0.00 | 0.00 | 0.00 | 32 | 1007.5 |
| 20260503000517 | 13 | 236 | 8.0 | 17.7 | 0.00 | 0.00 | 0.00 | 32 | 1007.5 |
| 20260502235510 | 13 | 244 | 0.0 | 19.3 | 0.00 | 0.00 | 0.00 | 32 | 1007.6 |
| 20260502234516 | 13 | 251 | 1.6 | 19.3 | 0.00 | 0.00 | 0.00 | 31 | 1007.6 |
| 20260502234012 | 13 | 254 | 0.0 | 19.3 | 0.00 | 0.00 | 0.00 | 30 | 1007.6 |
| 20260502233516 | 14 | 253 | 0.0 | 19.3 | 0.00 | 0.00 | 0.00 | 30 | 1007.6 |
| 20260502232511 | 14 | 251 | 0.0 | 19.3 | 0.00 | 0.00 | 0.00 | 30 | 1007.7 |
| 20260502231518 | 14 | 246 | 3.2 | 19.3 | 0.00 | 0.00 | 0.00 | 27 | 1007.7 |
| 20260502231011 | 14 | 260 | 1.6 | 19.3 | 0.00 | 0.00 | 0.00 | 27 | 1007.8 |
| 20260502230516 | 14 | 253 | 4.8 | 19.3 | 0.00 | 0.00 | 0.00 | 27 | 1007.8 |
| 20260502225511 | 14 | 257 | 3.2 | 19.3 | 0.00 | 0.00 | 0.00 | 28 | 1007.9 |
| 20260502224517 | 14 | 246 | 0.0 | 19.3 | 0.00 | 0.00 | 0.00 | 28 | 1007.9 |
| 20260502224011 | 14 | 240 | 4.8 | 19.3 | 0.00 | 0.00 | 0.00 | 28 | 1007.9 |
| 20260502222511 | 14 | 244 | 4.8 | 19.3 | 0.00 | 0.00 | 0.00 | 28 | 1007.9 |
| 20260502221516 | 15 | 247 | 4.8 | 19.3 | 0.00 | 0.00 | 0.00 | 27 | 1007.9 |
| 20260502221011 | 14 | 241 | 11.3 | 19.3 | 0.00 | 0.00 | 0.00 | 27 | 1008.0 |
| 20260502215511 | 15 | 261 | 0.0 | 19.3 | 0.00 | 0.00 | 0.00 | 27 | 1008.1 |
| 20260502214516 | 15 | 253 | 17.7 | 19.3 | 0.00 | 0.00 | 0.00 | 27 | 1008.1 |
| 20260502214010 | 15 | 213 | 9.7 | 19.3 | 0.00 | 0.00 | 0.00 | 28 | 1008.2 |
| 20260502213519 | 15 | 244 | 4.8 | 19.3 | 0.00 | 0.00 | 0.00 | 26 | 1008.2 |
| 20260502212512 | 15 | 247 | 9.7 | 19.3 | 0.00 | 0.00 | 0.00 | 27 | 1008.4 |
| 20260502211516 | 15 | 253 | 9.7 | 19.3 | 0.00 | 0.00 | 0.00 | 25 | 1008.4 |
| 20260502211010 | 15 | 215 | 0.0 | 19.3 | 0.00 | 0.00 | 0.00 | 28 | 1008.4 |
| 20260502210516 | 15 | 188 | 0.0 | 19.3 | 0.00 | 0.00 | 0.00 | 29 | 1008.4 |
| 20260502205511 | 14 | 274 | 0.0 | 17.7 | 0.00 | 0.00 | 0.00 | 26 | 1008.8 |
| 20260502204516 | 14 | 251 | 11.3 | 17.7 | 0.00 | 0.00 | 0.00 | 26 | 1008.8 |
| 20260502204011 | 14 | 247 | 0.0 | 17.7 | 0.00 | 0.00 | 0.00 | 26 | 1008.9 |
| 20260502203518 | 14 | 247 | 0.0 | 17.7 | 0.00 | 0.00 | 0.00 | 26 | 1008.9 |
| 20260502202510 | 14 | 184 | 0.0 | 17.7 | 0.00 | 0.00 | 0.00 | 26 | 1009.3 |
| 20260502201516 | 14 | 240 | 0.0 | 17.7 | 0.00 | 0.00 | 0.00 | 26 | 1009.3 |
| 20260502201010 | 15 | 254 | 8.0 | 17.7 | 0.00 | 0.00 | 0.00 | 26 | 1009.4 |
| 20260502200515 | 15 | 241 | 4.8 | 17.7 | 0.00 | 0.00 | 0.00 | 27 | 1009.4 |
| 20260502195510 | 15 | 192 | 6.4 | 22.5 | 0.00 | 0.00 | 0.00 | 27 | 1009.8 |
| 20260502194516 | 14 | 227 | 16.1 | 22.5 | 0.00 | 0.00 | 0.00 | 27 | 1009.8 |
| 20260502194011 | 13 | 306 | 8.0 | 22.5 | 0.00 | 0.00 | 0.00 | 27 | 1010.0 |
| 20260502193517 | 13 | 350 | 8.0 | 22.5 | 0.00 | 0.00 | 0.00 | 26 | 1010.0 |
| 20260502192510 | 13 | 176 | 0.0 | 22.5 | 0.00 | 0.00 | 0.00 | 28 | 1010.3 |
| 20260502191516 | 13 | 234 | 0.0 | 22.5 | 0.00 | 0.00 | 0.00 | 27 | 1010.3 |
| 20260502191011 | 13 | 271 | 0.0 | 22.5 | 0.00 | 0.00 | 0.00 | 27 | 1010.4 |
| 20260502190516 | 13 | 264 | 16.1 | 22.5 | 0.00 | 0.00 | 0.00 | 27 | 1010.4 |
| 20260502185511 | 13 | 241 | 0.0 | 22.5 | 0.00 | 0.00 | 0.00 | 27 | 1010.6 |
| 20260502184517 | 13 | 246 | 4.8 | 22.5 | 0.00 | 0.00 | 0.00 | 28 | 1010.6 |
| 20260502184012 | 13 | 291 | 3.2 | 22.5 | 0.00 | 0.00 | 0.00 | 28 | 1010.8 |
| 20260502183517 | 13 | 220 | 9.7 | 22.5 | 0.00 | 0.00 | 0.00 | 28 | 1010.8 |
| 20260502182512 | 13 | 226 | 0.0 | 22.5 | 0.00 | 0.00 | 0.00 | 30 | 1011.1 |
| 20260502181516 | 13 | 253 | 0.0 | 22.5 | 0.00 | 0.00 | 0.00 | 29 | 1011.1 |
| 20260502181011 | 12 | 342 | 0.0 | 22.5 | 0.00 | 0.00 | 0.00 | 29 | 1011.2 |
| 20260502180516 | 12 | 241 | 0.0 | 22.5 | 0.00 | 0.00 | 0.00 | 31 | 1011.2 |
| 20260502170516 | 11 | 240 | 8.0 | 22.5 | 0.00 | 0.00 | 0.00 | 36 | 1012.1 |
| 20260502164010 | 11 | 253 | 0.0 | 12.9 | 0.00 | 0.00 | 0.00 | 33 | 1012.4 |
| 20260502163516 | 11 | 330 | 0.0 | 12.9 | 0.00 | 0.00 | 0.00 | 33 | 1012.4 |
| 20260502162510 | 11 | 309 | 0.0 | 12.9 | 0.00 | 0.00 | 0.00 | 33 | 1012.8 |
| 20260502161516 | 10 | 247 | 1.6 | 12.9 | 0.00 | 0.00 | 0.00 | 35 | 1012.8 |
| 20260502161010 | 10 | 292 | 6.4 | 12.9 | 0.00 | 0.00 | 0.00 | 33 | 1012.8 |
| 20260502160516 | 10 | 260 | 0.0 | 12.9 | 0.00 | 0.00 | 0.00 | 35 | 1012.8 |
| 20260502151517 | 9 | 191 | 0.0 | 11.3 | 0.00 | 0.00 | 0.00 | 42 | 1013.5 |
| 20260502151011 | 9 | 250 | 0.0 | 11.3 | 0.00 | 0.00 | 0.00 | 38 | 1013.4 |
| 20260502150515 | 8 | 263 | 8.0 | 11.3 | 0.00 | 0.00 | 0.00 | 39 | 1013.4 |
| 20260502130515 | 1 | 0 | 0.0 | 0.0 | 0.00 | 0.00 | 0.00 | 72 | 1014.8 |
| 20260502123518 | -1 | 0 | 0.0 | 0.0 | 0.00 | 0.00 | 0.00 | 90 | 1015.1 |
| 20260502122509 | -2 | 0 | 0.0 | 0.0 | 0.00 | 0.00 | 0.00 | 92 | 1015.2 |
| 20260502121516 | -2 | 0 | 0.0 | 0.0 | 0.00 | 0.00 | 0.00 | 92 | 1015.2 |
| 20260502121009 | -3 | 0 | 0.0 | 0.0 | 0.00 | 0.00 | 0.00 | 92 | 1015.1 |
| 20260502115512 | -3 | 0 | 0.0 | 0.0 | 0.00 | 0.00 | 0.00 | 91 | 1015.2 |
| 20260502114515 | -4 | 0 | 0.0 | 0.0 | 0.00 | 0.00 | 0.00 | 90 | 1015.2 |
| 20260502114010 | -4 | 0 | 0.0 | 0.0 | 0.00 | 0.00 | 0.00 | 90 | 1015.2 |
| 20260502113514 | -4 | 0 | 0.0 | 0.0 | 0.00 | 0.00 | 0.00 | 90 | 1015.2 |
| 20260502112511 | -4 | 0 | 0.0 | 0.0 | 0.00 | 0.00 | 0.00 | 89 | 1015.2 |
| 20260502111517 | -4 | 0 | 0.0 | 0.0 | 0.00 | 0.00 | 0.00 | 89 | 1015.2 |
| 20260502111010 | -4 | 0 | 0.0 | 0.0 | 0.00 | 0.00 | 0.00 | 89 | 1015.1 |
| 20260502110516 | -5 | 0 | 0.0 | 0.0 | 0.00 | 0.00 | 0.00 | 89 | 1015.1 |
| 20260502105509 | -5 | 0 | 0.0 | 0.0 | 0.00 | 0.00 | 0.00 | 88 | 1015.2 |
| 20260502104516 | -4 | 0 | 0.0 | 0.0 | 0.00 | 0.00 | 0.00 | 88 | 1015.2 |
| 20260502104011 | -4 | 0 | 0.0 | 0.0 | 0.00 | 0.00 | 0.00 | 88 | 1015.1 |
| 20260502103517 | -4 | 0 | 0.0 | 0.0 | 0.00 | 0.00 | 0.00 | 88 | 1015.1 |
| 20260502102511 | -4 | 0 | 0.0 | 0.0 | 0.00 | 0.00 | 0.00 | 88 | 1015.2 |
| 20260502101515 | -4 | 0 | 0.0 | 0.0 | 0.00 | 0.00 | 0.00 | 88 | 1015.2 |
| 20260502101011 | -4 | 0 | 0.0 | 0.0 | 0.00 | 0.00 | 0.00 | 88 | 1015.2 |
| 20260502100516 | -4 | 0 | 0.0 | 0.0 | 0.00 | 0.00 | 0.00 | 88 | 1015.2 |
| 20260502091516 | -4 | 0 | 0.0 | 0.0 | 0.00 | 0.00 | 0.00 | 87 | 1015.2 |
| 20260502091010 | -4 | 0 | 0.0 | 0.0 | 0.00 | 0.00 | 0.00 | 87 | 1015.2 |
| 20260502090515 | -4 | 0 | 0.0 | 0.0 | 0.00 | 0.00 | 0.00 | 87 | 1015.2 |
| 20260502071514 | -3 | 0 | 0.0 | 0.0 | 0.00 | 0.00 | 0.00 | 83 | 1015.2 |
| 20260502071010 | -3 | 0 | 0.0 | 0.0 | 0.00 | 0.00 | 0.00 | 83 | 1015.4 |
| 20260502070515 | -3 | 0 | 0.0 | 0.0 | 0.00 | 0.00 | 0.00 | 82 | 1015.4 |
| 20260502065509 | -3 | 0 | 0.0 | 0.0 | 0.00 | 0.00 | 0.00 | 81 | 1015.4 |
| 20260502064514 | -3 | 0 | 0.0 | 0.0 | 0.00 | 0.00 | 0.00 | 81 | 1015.4 |
| 20260502064010 | -3 | 0 | 0.0 | 0.0 | 0.00 | 0.00 | 0.00 | 80 | 1015.6 |
| 20260502063515 | -3 | 0 | 0.0 | 0.0 | 0.00 | 0.00 | 0.00 | 79 | 1015.6 |
| 20260502062511 | -2 | 0 | 0.0 | 0.0 | 0.00 | 0.00 | 0.00 | 79 | 1015.6 |
| 20260502061514 | -2 | 0 | 0.0 | 0.0 | 0.00 | 0.00 | 0.00 | 78 | 1015.6 |
| 20260502061010 | -2 | 0 | 0.0 | 0.0 | 0.00 | 0.00 | 0.00 | 78 | 1015.7 |
| 20260502060515 | -2 | 0 | 0.0 | 0.0 | 0.00 | 0.00 | 0.00 | 78 | 1015.7 |
| 20260502055511 | -2 | 0 | 0.0 | 0.0 | 0.00 | 0.00 | 0.00 | 77 | 1015.8 |
| 20260502054517 | -2 | 0 | 0.0 | 0.0 | 0.00 | 0.00 | 0.00 | 76 | 1015.8 |
| 20260502054009 | -2 | 0 | 0.0 | 0.0 | 0.00 | 0.00 | 0.00 | 76 | 1015.7 |
| 20260502053515 | -2 | 0 | 0.0 | 0.0 | 0.00 | 0.00 | 0.00 | 75 | 1015.7 |
| 20260502052509 | -2 | 0 | 0.0 | 0.0 | 0.00 | 0.00 | 0.00 | 74 | 1015.7 |